Blackpool, United Kingdom

5:09 AM BST on April 27, 2018 (GMT +0100)
Blackpool

Weather History for EGNH - October, 2012

Change the Weather History Date:

Tuesday, October 2, 2012

  Actual Average Record
Temperature  
Mean Temperature 53 °F -  
Max Temperature 57 °F 55 °F 68 °F (2002)
Min Temperature 49 °F 46 °F 37 °F (2014)
Degree Days  
Heating Degree Days 12    
Growing Degree Days 3 (Base 50)    
Moisture  
Dew Point 51 °F    
Average Humidity 87    
Maximum Humidity 100    
Minimum Humidity 70    
Precipitation  
Precipitation 0.04 in - - ()
Sea Level Pressure  
Sea Level Pressure 29.57 in    
Wind  
Wind Speed 15 mph ()    
Max Wind Speed 29 mph    
Max Gust Speed -    
Visibility 6.0 miles    
Events Rain    
Averages and records for this station are not official NWS values.
T = Trace of Precipitation, MM = Missing Value Source: Averaged Metar Reports

Daily Weather History Graph

Daily Weather History Graph

Search for Another Location

Airport or City:

Astronomy

Oct. 02, 2012 Rise Set
Actual Time 7:16 AM BST 6:45 PM BST
Civil Twilight 6:41 AM BST 7:20 PM BST
Nautical Twilight 6:00 AM BST 8:01 PM BST
Astronomical Twilight 5:18 AM BST 8:42 PM BST
Moon 7:19 PM BST (10/2) 9:57 AM BST (10/2)
Length of Visible Light 12h 39m
Length of Day
11h 29m
Waning Gibbous, 95% of the Moon is Illuminated
Oct 2
Waning Gibbous
Oct 8
Last Quarter
Oct 15
New
Oct 22
First Quarter
Oct 29
Full

Hourly Weather History & Observations

Time (BST) Temp. Dew Point Humidity Pressure Visibility Wind Dir Wind Speed Gust Speed Precip Events Conditions
12:50 AM 54 °F 47 °F 70%  in - WSW 25.3 mph - -  
3:50 AM 52 °F 49 °F 84%  in - South 17.3 mph - -  
6:20 AM 51.8 °F 50.0 °F 94% 29.68 in 6.2 mi South 16.1 mph - N/A Rain Light Rain
6:50 AM 51 °F 49 °F 88%  in - South 12.7 mph - -  
6:50 AM 51.8 °F 50.0 °F 94% 29.68 in 6.2 mi South 11.5 mph - N/A Rain Light Rain
7:20 AM 51.8 °F 50.0 °F 94% 29.65 in 6.2 mi South 15.0 mph - N/A Rain Light Rain
7:50 AM 51.8 °F 50.0 °F 94% 29.65 in 6.2 mi South 11.5 mph - N/A Rain Light Rain
8:20 AM 51.8 °F 50.0 °F 94% 29.65 in 6.2 mi South 15.0 mph - N/A Rain Light Rain
8:50 AM 51.8 °F 50.0 °F 94% 29.65 in 6.2 mi South 15.0 mph - N/A Rain Light Rain
9:20 AM 51.8 °F 50.0 °F 94% 29.65 in 6.2 mi South 11.5 mph - N/A   Mostly Cloudy
9:50 AM 52 °F 49 °F 85%  in - SSE 13.8 mph - -  
9:50 AM 51.8 °F 50.0 °F 94% 29.65 in 6.2 mi South 15.0 mph - N/A   Mostly Cloudy
10:20 AM 53.6 °F 51.8 °F 94% 29.65 in 6.2 mi South 15.0 mph - N/A   Scattered Clouds
10:50 AM 55.4 °F 51.8 °F 88% 29.65 in 6.2 mi South 17.3 mph - N/A   Scattered Clouds
11:20 AM 57.2 °F 53.6 °F 88% 29.62 in 6.2 mi South 18.4 mph - N/A   Scattered Clouds
11:50 AM 57.2 °F 53.6 °F 88% 29.62 in 6.2 mi South 17.3 mph - N/A   Scattered Clouds
12:20 PM 55.4 °F 51.8 °F 88% 29.62 in 6.2 mi South 19.6 mph - N/A   Partly Cloudy
12:50 PM 56 °F 50 °F 75%  in - South 19.6 mph - -  
12:50 PM 57.2 °F 51.8 °F 82% 29.62 in 6.2 mi South 18.4 mph - N/A   Partly Cloudy
1:20 PM 57.2 °F 51.8 °F 82% 29.59 in 6.2 mi SSW 18.4 mph - N/A   Partly Cloudy
1:50 PM 57.2 °F 51.8 °F 82% 29.59 in 6.2 mi SSW 18.4 mph - N/A   Scattered Clouds
2:20 PM 57.2 °F 51.8 °F 82% 29.59 in 6.2 mi SSW 19.6 mph - N/A   Scattered Clouds
2:50 PM 57.2 °F 51.8 °F 82% 29.56 in 6.2 mi South 16.1 mph - N/A   Scattered Clouds
3:20 PM 57.2 °F 51.8 °F 82% 29.56 in 6.2 mi South 16.1 mph - N/A   Scattered Clouds
3:50 PM 57 °F 51 °F 72%  in - SSW 13.8 mph - -  
3:50 PM 57.2 °F 51.8 °F 82% 29.56 in 6.2 mi SSW 12.7 mph - N/A   Scattered Clouds
4:20 PM 57.2 °F 51.8 °F 82% 29.53 in 6.2 mi SSW 13.8 mph - N/A   Scattered Clouds
4:50 PM 57.2 °F 51.8 °F 82% 29.53 in 6.2 mi South 11.5 mph - N/A   Mostly Cloudy
5:20 PM 55.4 °F 51.8 °F 88% 29.50 in 6.2 mi South 10.4 mph - N/A Rain Light Rain Showers
5:50 PM 55.4 °F 51.8 °F 88% 29.47 in 2.8 mi South 12.7 mph - N/A Rain Rain Showers
6:20 PM 55.4 °F 53.6 °F 94% 29.47 in 4.3 mi South 18.4 mph - N/A Rain Rain Showers
6:50 PM 54 °F 52 °F 89%  in - South 19.6 mph - -  
6:50 PM 53.6 °F 53.6 °F 100% 29.47 in 6.2 mi South 20.7 mph - N/A   Mostly Cloudy
7:20 PM 53.6 °F 51.8 °F 94% 29.47 in 6.2 mi South 20.7 mph - N/A Rain Light Rain Showers
7:50 PM 53.6 °F 51.8 °F 94% 29.44 in 6.2 mi SW 20.7 mph - N/A Rain Rain Showers
8:20 PM 53.6 °F 50.0 °F 88% 29.44 in 6.2 mi WSW 23.0 mph - N/A Rain Light Rain Showers
8:50 PM 55.4 °F 51.8 °F 88% 29.44 in 6.2 mi WSW 20.7 mph - N/A   Scattered Clouds
9:50 PM 54 °F 47 °F 71%  in - SW 28.8 mph - -